�������l�o���
Date,Time,MP-1(��Sv/h),MP-2(��Sv/h),MP-3(��Sv/h),MP-4(��Sv/h),MP-5(��Sv/h),MP-6(��Sv/h),MP-7(��Sv/h),MP-8(��Sv/h),����,����(m/s),���J
2019/01/16,00:00,0.794,1.182,0.829,1.515,1.082,0.456,0.805,0.761,���k��,4.6,��
2019/01/16,00:10,0.798,1.183,0.831,1.514,1.081,0.455,0.804,0.758,���k��,2.8,��
2019/01/16,00:20,0.796,1.179,0.830,1.513,1.082,0.455,0.803,0.759,��쓌,0.6,��
2019/01/16,00:30,0.795,1.184,0.827,1.512,1.079,0.455,0.803,0.759,��쓌,1.5,��
2019/01/16,00:40,0.795,1.183,0.829,1.511,1.082,0.455,0.803,0.759,��쓌,1.1,��
2019/01/16,00:50,0.795,1.183,0.830,1.512,1.078,0.457,0.805,0.761,�쓌,0.6,��
2019/01/16,01:00,0.794,1.182,0.828,1.514,1.080,0.455,0.805,0.760,�쐼,0.6,��
2019/01/16,01:10,0.795,1.182,0.829,1.514,1.083,0.457,0.801,0.759,��,2.5,��
2019/01/16,01:20,0.794,1.183,0.830,1.514,1.082,0.456,0.804,0.759,�k��,5.2,��
2019/01/16,01:30,0.795,1.183,0.829,1.513,1.081,0.455,0.805,0.760,���k��,5.7,��
2019/01/16,01:40,0.795,1.183,0.826,1.514,1.081,0.456,0.802,0.760,���k��,7.2,��
2019/01/16,01:50,0.794,1.187,0.826,1.513,1.081,0.455,0.806,0.760,��,9.8,��
2019/01/16,02:00,0.796,1.184,0.830,1.514,1.084,0.455,0.804,0.760,��,7.4,��
2019/01/16,02:10,0.796,1.182,0.831,1.512,1.081,0.456,0.807,0.760,��,7.3,��
2019/01/16,02:20,0.796,1.183,0.830,1.516,1.084,0.457,0.806,0.760,���k��,8.3,��
2019/01/16,02:30,0.796,1.184,0.826,1.513,1.083,0.458,0.805,0.760,���k��,10.5,��
2019/01/16,02:40,0.793,1.185,0.833,1.514,1.083,0.456,0.806,0.760,��,8.1,��
2019/01/16,02:50,0.795,1.184,0.834,1.515,1.085,0.456,0.804,0.759,���k��,10.8,��
2019/01/16,03:00,0.795,1.185,0.831,1.516,1.081,0.457,0.805,0.761,���k��,11.4,��
2019/01/16,03:10,0.797,1.183,0.835,1.515,1.081,0.454,0.804,0.759,���k��,10.6,��
2019/01/16,03:20,0.797,1.184,0.834,1.517,1.082,0.457,0.804,0.760,���k��,8.0,��
2019/01/16,03:30,0.797,1.186,0.835,1.514,1.084,0.456,0.803,0.760,�k��,7.4,��
2019/01/16,03:40,0.796,1.184,0.833,1.515,1.084,0.456,0.805,0.761,�k��,7.1,��
2019/01/16,03:50,0.795,1.184,0.835,1.516,1.083,0.455,0.805,0.760,�k��,9.9,��
2019/01/16,04:00,0.797,1.184,0.835,1.515,1.083,0.456,0.805,0.761,�k��,10.0,��
2019/01/16,04:10,0.794,1.183,0.834,1.518,1.084,0.456,0.806,0.760,�k��,8.7,��
2019/01/16,04:20,0.795,1.185,0.833,1.517,1.083,0.455,0.803,0.761,�k��,8.9,��
2019/01/16,04:30,0.796,1.185,0.832,1.514,1.084,0.456,0.806,0.760,�k��,7.4,��
2019/01/16,04:40,0.794,1.184,0.833,1.517,1.082,0.456,0.805,0.760,�k��,9.7,��
2019/01/16,04:50,0.795,1.183,0.834,1.515,1.082,0.457,0.805,0.759,�k��,9.3,��
2019/01/16,05:00,0.795,1.184,0.833,1.517,1.080,0.456,0.804,0.760,�k��,9.2,��
2019/01/16,05:10,0.793,1.184,0.834,1.517,1.083,0.456,0.805,0.759,�k�k��,8.3,��
2019/01/16,05:20,0.794,1.183,0.833,1.515,1.084,0.455,0.806,0.762,�k�k��,8.4,��
2019/01/16,05:30,0.794,1.186,0.834,1.515,1.081,0.454,0.803,0.761,�k,7.5,��
2019/01/16,05:40,0.796,1.184,0.835,1.515,1.084,0.455,0.805,0.760,�k�k��,6.6,��
2019/01/16,05:50,0.796,1.184,0.833,1.515,1.081,0.456,0.805,0.761,�k��,7.2,��
2019/01/16,06:00,0.795,1.185,0.832,1.514,1.084,0.455,0.804,0.760,�k��,6.4,��
2019/01/16,06:10,0.795,1.185,0.831,1.517,1.082,0.454,0.804,0.761,�k��,7.9,��
2019/01/16,06:20,0.794,1.184,0.832,1.515,1.083,0.454,0.804,0.759,�k��,8.1,��
2019/01/16,06:30,0.794,1.183,0.832,1.515,1.082,0.455,0.804,0.759,�k��,8.0,��
2019/01/16,06:40,0.793,1.182,0.832,1.516,1.085,0.455,0.804,0.760,�k��,8.1,��
2019/01/16,06:50,0.793,1.181,0.833,1.515,1.083,0.454,0.803,0.759,�k��,7.8,��
2019/01/16,07:00,0.793,1.185,0.832,1.517,1.083,0.456,0.804,0.760,�k��,8.0,��
2019/01/16,07:10,0.791,1.184,0.833,1.514,1.082,0.454,0.804,0.761,�k��,6.2,��
2019/01/16,07:20,0.793,1.185,0.832,1.517,1.083,0.455,0.802,0.760,�k��,6.6,��
2019/01/16,07:30,0.795,1.183,0.833,1.515,1.083,0.455,0.804,0.760,�k��,7.6,��
2019/01/16,07:40,0.791,1.182,0.832,1.515,1.082,0.455,0.803,0.761,�k��,6.6,��
2019/01/16,07:50,0.791,1.184,0.832,1.515,1.084,0.455,0.804,0.760,�k��,6.6,��
2019/01/16,08:00,0.793,1.181,0.835,1.516,1.082,0.454,0.806,0.759,�k��,7.1,��
2019/01/16,08:10,0.793,1.182,0.832,1.516,1.083,0.454,0.803,0.759,�k��,6.7,��
2019/01/16,08:20,0.794,1.184,0.831,1.516,1.082,0.454,0.805,0.759,�k�k��,6.7,��
2019/01/16,08:30,0.794,1.180,0.832,1.517,1.080,0.453,0.802,0.763,�k��,8.8,��
2019/01/16,08:40,0.795,1.181,0.830,1.514,1.084,0.454,0.804,0.760,�k��,7.7,��
2019/01/16,08:50,0.795,1.179,0.830,1.514,1.082,0.454,0.804,0.761,�k��,5.8,��
2019/01/16,09:00,0.795,1.186,0.832,1.513,1.081,0.453,0.805,0.760,�k��,10.0,��
2019/01/16,09:10,0.796,1.181,0.831,1.517,1.083,0.455,0.805,0.760,�k��,9.0,��
2019/01/16,09:20,0.796,1.183,0.832,1.518,1.083,0.453,0.803,0.759,�k��,8.5,�L
2019/01/16,09:30,0.793,1.179,0.830,1.516,1.083,0.454,0.805,0.759,�k��,7.2,��
2019/01/16,09:40,0.795,1.180,0.830,1.517,1.084,0.454,0.804,0.762,�k��,5.9,��
2019/01/16,09:50,0.796,1.178,0.834,1.517,1.083,0.456,0.803,0.761,�k��,8.1,��
2019/01/16,10:00,0.794,1.178,0.832,1.516,1.083,0.454,0.804,0.759,�k��,4.8,��
2019/01/16,10:10,0.795,1.177,0.830,1.516,1.084,0.454,0.804,0.760,�k��,4.0,��
2019/01/16,10:20,0.794,1.178,0.833,1.516,1.084,0.455,0.804,0.760,�k��,7.3,��
2019/01/16,10:30,0.794,1.180,0.832,1.516,1.083,0.454,0.804,0.761,�k��,7.4,��
2019/01/16,10:40,0.796,1.181,0.832,1.519,1.082,0.453,0.803,0.760,�k��,5.6,��
2019/01/16,10:50,0.796,1.177,0.833,1.518,1.082,0.453,0.804,0.759,�k��,7.5,��
2019/01/16,11:00,0.795,1.179,0.833,1.515,1.084,0.454,0.805,0.760,�k��,6.4,��
2019/01/16,11:10,0.795,1.184,0.833,1.519,1.085,0.455,0.804,0.760,�k��,6.1,��
2019/01/16,11:20,0.796,1.183,0.836,1.516,1.083,0.454,0.804,0.761,�k��,6.0,��
2019/01/16,11:30,0.796,1.182,0.832,1.518,1.084,0.454,0.804,0.760,�k��,6.7,��
2019/01/16,11:40,0.796,1.183,0.834,1.519,1.084,0.453,0.805,0.759,�k��,4.6,��
2019/01/16,11:50,0.796,1.187,0.832,1.518,1.084,0.454,0.804,0.757,�k�k��,4.7,��
2019/01/16,12:00,0.794,1.186,0.833,1.518,1.086,0.454,0.805,0.758,�k�k��,5.5,��
2019/01/16,12:10,0.798,1.185,0.834,1.517,1.083,0.454,0.805,0.758,�k�k��,5.4,��
2019/01/16,12:20,0.796,1.184,0.833,1.518,1.085,0.455,0.805,0.760,�k�k��,7.0,��
2019/01/16,12:30,0.795,1.185,0.833,1.518,1.085,0.455,0.805,0.757,�k�k��,6.9,��
2019/01/16,12:40,0.795,1.180,0.833,1.515,1.084,0.455,0.806,0.761,�k�k��,6.2,��
2019/01/16,12:50,0.796,1.183,0.831,1.519,1.084,0.453,0.803,0.758,�k�k��,6.2,��
2019/01/16,13:00,0.795,1.177,0.833,1.520,1.084,0.454,0.804,0.760,�k�k��,6.0,��
2019/01/16,13:10,0.795,1.182,0.833,1.518,1.083,0.453,0.803,0.758,�k�k��,5.9,��
2019/01/16,13:20,0.795,1.180,0.831,1.514,1.088,0.454,0.802,0.758,�k��,6.1,��
2019/01/16,13:30,0.797,1.181,0.834,1.516,1.084,0.453,0.802,0.759,�k�k��,5.4,��
2019/01/16,13:40,0.795,1.178,0.833,1.518,1.085,0.453,0.802,0.758,�k�k��,4.2,��
2019/01/16,13:50,0.797,1.184,0.833,1.518,1.084,0.453,0.802,0.760,�k�k��,4.9,��
2019/01/16,14:00,0.796,1.179,0.831,1.517,1.083,0.453,0.804,0.759,�k�k��,4.9,��
2019/01/16,14:10,0.796,1.177,0.832,1.516,1.084,0.452,0.801,0.760,�k�k��,5.6,��
2019/01/16,14:20,0.796,1.182,0.834,1.517,1.084,0.454,0.802,0.760,�k�k��,5.7,��
2019/01/16,14:30,0.795,1.181,0.831,1.517,1.085,0.453,0.802,0.758,�k�k��,6.0,��
2019/01/16,14:40,0.797,1.180,0.833,1.519,1.083,0.454,0.802,0.759,�k�k��,6.0,��
2019/01/16,14:50,0.795,1.182,0.832,1.520,1.085,0.454,0.801,0.760,�k�k��,5.6,��
2019/01/16,15:00,0.794,1.184,0.832,1.516,1.083,0.453,0.802,0.759,�k��,6.8,��
2019/01/16,15:10,0.794,1.185,0.832,1.516,1.085,0.453,0.802,0.758,�k�k��,7.0,��
2019/01/16,15:20,0.795,1.185,0.832,1.517,1.085,0.453,0.802,0.759,�k�k��,7.1,��
2019/01/16,15:30,0.793,1.185,0.832,1.518,1.086,0.453,0.801,0.759,�k�k��,7.1,��
2019/01/16,15:40,0.795,1.185,0.832,1.518,1.085,0.453,0.802,0.758,�k�k��,8.1,��
2019/01/16,15:50,0.795,1.187,0.831,1.517,1.084,0.454,0.802,0.759,�k�k��,6.5,��
2019/01/16,16:00,0.793,1.185,0.832,1.518,1.083,0.452,0.805,0.758,�k�k��,6.7,��
2019/01/16,16:10,0.793,1.185,0.832,1.518,1.083,0.452,0.805,0.759,�k�k��,7.0,��
2019/01/16,16:20,0.793,1.186,0.831,1.515,1.083,0.453,0.802,0.757,�k�k��,6.2,��
2019/01/16,16:30,0.794,1.185,0.832,1.518,1.083,0.452,0.803,0.759,�k�k��,7.6,��
2019/01/16,16:40,0.793,1.186,0.831,1.516,1.082,0.452,0.804,0.759,�k�k��,4.5,��
2019/01/16,16:50,0.793,1.185,0.832,1.518,1.084,0.452,0.803,0.758,�k�k��,4.0,��
2019/01/16,17:00,0.795,1.186,0.833,1.516,1.085,0.453,0.801,0.757,�k�k��,4.9,��
2019/01/16,17:10,0.794,1.185,0.832,1.516,1.083,0.451,0.802,0.758,�k�k��,4.2,��
2019/01/16,17:20,0.792,1.188,0.830,1.517,1.083,0.454,0.803,0.758,�k�k��,5.1,��
2019/01/16,17:30,0.794,1.189,0.830,1.517,1.084,0.453,0.803,0.758,�k�k��,5.5,��
2019/01/16,17:40,0.792,1.187,0.833,1.517,1.081,0.451,0.801,0.759,�k�k��,4.3,��
2019/01/16,17:50,0.794,1.185,0.832,1.516,1.083,0.453,0.800,0.758,�k�k��,4.3,��
2019/01/16,18:00,0.790,1.185,0.832,1.515,1.083,0.452,0.802,0.758,�k�k��,4.8,��
2019/01/16,18:10,0.792,1.184,0.832,1.518,1.083,0.452,0.800,0.757,�k��,3.2,��
2019/01/16,18:20,0.792,1.185,0.827,1.518,1.083,0.452,0.801,0.757,�k��,2.0,��
2019/01/16,18:30,0.792,1.182,0.825,1.517,1.082,0.452,0.800,0.757,�k��,2.0,��
2019/01/16,18:40,0.794,1.181,0.821,1.516,1.084,0.453,0.802,0.757,�k�k��,3.0,��
2019/01/16,18:50,0.790,1.182,0.825,1.515,1.084,0.452,0.802,0.756,�k��,3.1,��
2019/01/16,19:00,0.792,1.183,0.826,1.516,1.083,0.452,0.803,0.757,�k��,3.7,��
2019/01/16,19:10,0.789,1.183,0.822,1.516,1.080,0.452,0.802,0.756,�k�k��,4.8,��
2019/01/16,19:20,0.790,1.182,0.826,1.516,1.080,0.454,0.802,0.757,�k�k��,5.6,��
2019/01/16,19:30,0.792,1.186,0.825,1.518,1.082,0.453,0.802,0.759,�k�k��,3.7,��
2019/01/16,19:40,0.792,1.181,0.827,1.516,1.084,0.451,0.801,0.758,�k��,3.0,��
2019/01/16,19:50,0.791,1.183,0.824,1.514,1.082,0.452,0.800,0.756,�k�k��,3.9,��
2019/01/16,20:00,0.791,1.183,0.827,1.518,1.084,0.451,0.800,0.755,�k�k��,5.7,��
2019/01/16,20:10,0.792,1.183,0.827,1.514,1.081,0.451,0.802,0.759,�k�k��,5.3,��
2019/01/16,20:20,0.791,1.183,0.827,1.515,1.084,0.452,0.804,0.757,�k�k��,6.3,��
2019/01/16,20:30,0.793,1.183,0.826,1.514,1.084,0.452,0.800,0.757,�k,5.2,��
2019/01/16,20:40,0.791,1.182,0.825,1.514,1.082,0.452,0.799,0.758,�k�k��,5.2,��
2019/01/16,20:50,0.793,1.182,0.825,1.513,1.080,0.451,0.799,0.757,�k�k��,4.6,��
2019/01/16,21:00,0.791,1.181,0.821,1.513,1.081,0.451,0.801,0.757,�k,3.7,��
2019/01/16,21:10,0.791,1.178,0.822,1.515,1.082,0.451,0.801,0.758,�k�k��,4.1,��
2019/01/16,21:20,0.791,1.180,0.821,1.516,1.082,0.452,0.801,0.756,�k�k��,4.4,��
2019/01/16,21:30,0.792,1.179,0.822,1.515,1.082,0.451,0.802,0.756,�k,4.3,��
2019/01/16,21:40,0.793,1.181,0.821,1.516,1.081,0.451,0.802,0.756,�k�k��,2.9,��
2019/01/16,21:50,0.792,1.178,0.821,1.515,1.082,0.452,0.801,0.759,�k,3.4,��
2019/01/16,22:00,0.792,1.181,0.822,1.514,1.081,0.451,0.800,0.758,�k�k��,3.5,��
2019/01/16,22:10,0.792,1.181,0.820,1.516,1.083,0.451,0.802,0.757,�k�k��,5.8,��
2019/01/16,22:20,0.792,1.183,0.819,1.515,1.080,0.451,0.801,0.756,�k�k��,6.1,��
2019/01/16,22:30,0.790,1.181,0.819,1.515,1.082,0.452,0.800,0.757,�k��,7.0,��
2019/01/16,22:40,0.790,1.183,0.820,1.514,1.082,0.450,0.801,0.756,�k��,3.8,��
2019/01/16,22:50,0.792,1.182,0.821,1.517,1.080,0.452,0.802,0.756,���k��,3.0,��
2019/01/16,23:00,0.793,1.181,0.821,1.517,1.081,0.452,0.801,0.755,�k��,3.1,��
2019/01/16,23:10,0.792,1.180,0.822,1.515,1.080,0.453,0.801,0.757,�k��,3.3,��
2019/01/16,23:20,0.789,1.183,0.822,1.515,1.079,0.452,0.801,0.758,�k��,3.8,��
2019/01/16,23:30,0.792,1.177,0.823,1.514,1.081,0.452,0.799,0.757,�k��,5.0,��
2019/01/16,23:40,0.791,1.181,0.828,1.513,1.082,0.452,0.801,0.755,�k��,6.4,��
2019/01/16,23:50,0.792,1.179,0.824,1.516,1.079,0.452,0.801,0.756,�k��,7.5,��
